�������l�o���
Date,Time,MP-1(��Sv/h),MP-2(��Sv/h),MP-3(��Sv/h),MP-4(��Sv/h),MP-5(��Sv/h),MP-6(��Sv/h),MP-7(��Sv/h),MP-8(��Sv/h),����,����(m/s),���J
2023/04/18,00:00,0.556,0.813,0.492,1.015,0.716,0.320,0.573,0.543,��,4.5,��
2023/04/18,00:10,0.557,0.812,0.491,1.013,0.716,0.321,0.572,0.544,��,3.7,��
2023/04/18,00:20,0.557,0.811,0.492,1.015,0.716,0.320,0.574,0.541,��,3.9,��
2023/04/18,00:30,0.555,0.809,0.490,1.014,0.717,0.321,0.573,0.543,���k��,3.5,��
2023/04/18,00:40,0.558,0.813,0.492,1.014,0.715,0.321,0.573,0.542,���k��,2.6,��
2023/04/18,00:50,0.557,0.811,0.492,1.016,0.717,0.320,0.572,0.542,���k��,2.6,��
2023/04/18,01:00,0.556,0.813,0.491,1.014,0.717,0.320,0.572,0.543,���쐼,3.1,��
2023/04/18,01:10,0.557,0.810,0.492,1.017,0.717,0.321,0.572,0.543,���쐼,4.3,��
2023/04/18,01:20,0.559,0.812,0.491,1.014,0.717,0.320,0.573,0.542,��,6.1,��
2023/04/18,01:30,0.556,0.810,0.491,1.015,0.715,0.321,0.573,0.543,��,5.4,��
2023/04/18,01:40,0.557,0.812,0.492,1.013,0.715,0.321,0.573,0.542,��,3.5,��
2023/04/18,01:50,0.556,0.813,0.491,1.015,0.715,0.321,0.573,0.542,��,4.7,��
2023/04/18,02:00,0.557,0.813,0.493,1.016,0.715,0.320,0.573,0.544,��,5.5,��
2023/04/18,02:10,0.557,0.813,0.492,1.016,0.715,0.320,0.573,0.543,��,4.6,��
2023/04/18,02:20,0.558,0.811,0.491,1.016,0.717,0.321,0.573,0.542,��,4.9,��
2023/04/18,02:30,0.557,0.812,0.492,1.015,0.715,0.320,0.575,0.544,��,4.3,��
2023/04/18,02:40,0.556,0.810,0.491,1.016,0.716,0.320,0.574,0.542,��,2.9,��
2023/04/18,02:50,0.557,0.812,0.492,1.014,0.715,0.320,0.573,0.543,��,2.5,��
2023/04/18,03:00,0.556,0.812,0.491,1.015,0.715,0.321,0.572,0.544,�k��,3.6,��
2023/04/18,03:10,0.558,0.811,0.489,1.015,0.716,0.320,0.573,0.544,���k��,3.4,��
2023/04/18,03:20,0.557,0.811,0.493,1.013,0.715,0.320,0.573,0.543,���k��,3.2,��
2023/04/18,03:30,0.556,0.812,0.491,1.012,0.714,0.320,0.573,0.542,��,2.3,��
2023/04/18,03:40,0.555,0.811,0.492,1.016,0.715,0.320,0.572,0.543,��,2.3,��
2023/04/18,03:50,0.557,0.812,0.491,1.016,0.715,0.320,0.572,0.543,��,1.8,��
2023/04/18,04:00,0.556,0.811,0.493,1.013,0.716,0.321,0.572,0.542,��,3.4,��
2023/04/18,04:10,0.556,0.812,0.490,1.013,0.715,0.320,0.573,0.543,���쐼,2.3,��
2023/04/18,04:20,0.557,0.811,0.491,1.014,0.715,0.321,0.572,0.544,���쐼,2.8,��
2023/04/18,04:30,0.557,0.811,0.490,1.015,0.715,0.321,0.573,0.542,���쐼,3.4,��
2023/04/18,04:40,0.556,0.813,0.491,1.014,0.716,0.319,0.572,0.543,���쐼,4.4,��
2023/04/18,04:50,0.557,0.812,0.493,1.012,0.716,0.321,0.571,0.543,���쐼,5.3,��
2023/04/18,05:00,0.557,0.811,0.492,1.014,0.714,0.322,0.572,0.542,��,5.4,��
2023/04/18,05:10,0.558,0.811,0.492,1.014,0.714,0.321,0.571,0.541,���쐼,4.6,��
2023/04/18,05:20,0.558,0.810,0.490,1.014,0.715,0.320,0.572,0.542,��,4.1,��
2023/04/18,05:30,0.557,0.811,0.492,1.015,0.715,0.320,0.574,0.542,��,3.5,��
2023/04/18,05:40,0.558,0.813,0.490,1.016,0.715,0.320,0.571,0.542,��,3.7,��
2023/04/18,05:50,0.556,0.813,0.492,1.014,0.716,0.321,0.573,0.544,���쐼,3.6,��
2023/04/18,06:00,0.558,0.811,0.491,1.016,0.716,0.320,0.572,0.543,���쐼,3.2,��
2023/04/18,06:10,0.556,0.811,0.490,1.016,0.716,0.320,0.572,0.543,���쐼,4.0,��
2023/04/18,06:20,0.557,0.811,0.491,1.014,0.714,0.320,0.573,0.543,���쐼,4.3,��
2023/04/18,06:30,0.557,0.813,0.493,1.013,0.716,0.320,0.571,0.544,���쐼,4.7,��
2023/04/18,06:40,0.558,0.812,0.492,1.017,0.716,0.322,0.575,0.543,���쐼,5.1,��
2023/04/18,06:50,0.559,0.812,0.492,1.014,0.716,0.321,0.573,0.543,��,5.5,��
2023/04/18,07:00,0.559,0.815,0.493,1.017,0.716,0.321,0.572,0.543,��,4.8,��
2023/04/18,07:10,0.560,0.813,0.493,1.016,0.716,0.321,0.576,0.544,��,4.0,��
2023/04/18,07:20,0.559,0.815,0.493,1.016,0.717,0.321,0.573,0.545,��,3.4,��
2023/04/18,07:30,0.560,0.814,0.493,1.015,0.715,0.322,0.573,0.544,���쐼,3.4,��
2023/04/18,07:40,0.557,0.815,0.494,1.016,0.714,0.321,0.575,0.543,��,2.6,��
2023/04/18,07:50,0.557,0.813,0.493,1.015,0.715,0.322,0.573,0.543,���쐼,3.3,��
2023/04/18,08:00,0.559,0.812,0.492,1.017,0.717,0.321,0.573,0.542,��,2.3,��
2023/04/18,08:10,0.559,0.813,0.492,1.016,0.715,0.321,0.572,0.542,���k��,4.2,��
2023/04/18,08:20,0.558,0.812,0.493,1.016,0.715,0.321,0.575,0.545,���k��,4.4,��
2023/04/18,08:30,0.561,0.812,0.493,1.016,0.717,0.320,0.573,0.544,���k��,4.7,��
2023/04/18,08:40,0.560,0.812,0.493,1.018,0.717,0.321,0.572,0.543,�k��,3.0,��
2023/04/18,08:50,0.560,0.811,0.493,1.018,0.718,0.319,0.571,0.544,�k��,3.4,��
2023/04/18,09:00,0.561,0.814,0.493,1.017,0.717,0.321,0.573,0.542,���k��,2.8,��
2023/04/18,09:10,0.561,0.809,0.494,1.018,0.714,0.320,0.573,0.542,�k��,1.2,��
2023/04/18,09:20,0.559,0.810,0.492,1.016,0.717,0.321,0.573,0.543,�k�k��,0.9,��
2023/04/18,09:30,0.559,0.811,0.493,1.018,0.718,0.320,0.573,0.542,���k��,2.3,��
2023/04/18,09:40,0.558,0.811,0.493,1.016,0.715,0.319,0.571,0.541,��,2.3,��
2023/04/18,09:50,0.558,0.813,0.493,1.017,0.716,0.319,0.572,0.541,�쓌,4.6,��
2023/04/18,10:00,0.559,0.813,0.493,1.017,0.715,0.320,0.574,0.542,���쓌,3.5,��
2023/04/18,10:10,0.560,0.811,0.494,1.019,0.715,0.321,0.573,0.540,�쓌,4.5,��
2023/04/18,10:20,0.559,0.812,0.494,1.019,0.717,0.320,0.574,0.542,���쓌,3.2,��
2023/04/18,10:30,0.558,0.812,0.494,1.017,0.718,0.320,0.572,0.543,�쓌,3.2,��
2023/04/18,10:40,0.559,0.814,0.493,1.019,0.717,0.319,0.573,0.542,���쓌,3.8,��
2023/04/18,10:50,0.558,0.815,0.493,1.021,0.717,0.322,0.571,0.543,���쓌,4.2,��
2023/04/18,11:00,0.558,0.814,0.492,1.018,0.715,0.320,0.573,0.542,���쓌,4.1,��
2023/04/18,11:10,0.559,0.815,0.493,1.018,0.718,0.322,0.573,0.541,�쓌,4.4,��
2023/04/18,11:20,0.559,0.814,0.491,1.017,0.717,0.320,0.574,0.541,�쓌,4.3,��
2023/04/18,11:30,0.559,0.815,0.491,1.016,0.716,0.320,0.573,0.541,��쓌,4.9,��
2023/04/18,11:40,0.560,0.814,0.493,1.018,0.715,0.319,0.572,0.541,��쓌,6.0,��
2023/04/18,11:50,0.561,0.815,0.492,1.018,0.717,0.321,0.573,0.541,��쓌,5.9,��
2023/04/18,12:00,0.560,0.815,0.491,1.019,0.716,0.320,0.573,0.541,��쓌,6.3,��
2023/04/18,12:10,0.560,0.815,0.492,1.021,0.717,0.321,0.574,0.541,��쓌,6.6,��
2023/04/18,12:20,0.561,0.815,0.492,1.019,0.717,0.321,0.574,0.542,��쓌,7.6,��
2023/04/18,12:30,0.560,0.815,0.491,1.020,0.718,0.321,0.573,0.542,��쓌,8.6,��
2023/04/18,12:40,0.561,0.816,0.493,1.020,0.720,0.319,0.575,0.542,��쓌,7.6,��
2023/04/18,12:50,0.558,0.815,0.491,1.018,0.719,0.321,0.574,0.541,��쓌,8.3,��
2023/04/18,13:00,0.560,0.815,0.492,1.021,0.719,0.321,0.574,0.543,��쓌,7.5,��
2023/04/18,13:10,0.558,0.813,0.493,1.019,0.718,0.321,0.574,0.543,��쓌,9.9,��
2023/04/18,13:20,0.561,0.813,0.492,1.020,0.720,0.320,0.574,0.543,��,10.7,��
2023/04/18,13:30,0.561,0.812,0.491,1.021,0.718,0.321,0.574,0.541,��쓌,10.9,��
2023/04/18,13:40,0.559,0.815,0.492,1.019,0.719,0.319,0.575,0.543,��쓌,13.0,��
2023/04/18,13:50,0.558,0.813,0.492,1.021,0.717,0.320,0.574,0.543,��쓌,13.0,��
2023/04/18,14:00,0.560,0.814,0.493,1.022,0.718,0.322,0.574,0.543,��쓌,13.3,��
2023/04/18,14:10,0.561,0.815,0.492,1.021,0.719,0.321,0.574,0.542,��쓌,12.4,��
2023/04/18,14:20,0.560,0.815,0.492,1.022,0.719,0.321,0.574,0.542,��쓌,11.7,��
2023/04/18,14:30,0.559,0.812,0.492,1.021,0.719,0.321,0.574,0.543,��,11.1,��
2023/04/18,14:40,0.561,0.813,0.493,1.021,0.719,0.321,0.574,0.543,��,10.0,�L
2023/04/18,14:50,0.559,0.813,0.493,1.021,0.718,0.321,0.575,0.543,��,9.5,�L
2023/04/18,15:00,0.561,0.816,0.494,1.022,0.719,0.322,0.573,0.544,��쐼,9.9,�L
2023/04/18,15:10,0.562,0.817,0.496,1.022,0.722,0.323,0.574,0.544,��,9.2,�L
2023/04/18,15:20,0.565,0.819,0.496,1.021,0.719,0.324,0.574,0.544,��,7.4,�L
2023/04/18,15:30,0.565,0.821,0.498,1.022,0.723,0.325,0.575,0.546,��,6.6,�L
2023/04/18,15:40,0.566,0.820,0.497,1.023,0.722,0.323,0.576,0.545,��쓌,5.9,�L
2023/04/18,15:50,0.567,0.820,0.496,1.021,0.724,0.324,0.574,0.546,��쓌,6.2,�L
2023/04/18,16:00,0.565,0.822,0.498,1.022,0.722,0.324,0.575,0.546,��,5.5,�L
2023/04/18,16:10,0.565,0.821,0.497,1.023,0.721,0.324,0.576,0.546,��쓌,5.6,�L
2023/04/18,16:20,0.564,0.821,0.496,1.024,0.721,0.323,0.575,0.547,��쓌,5.8,�L
2023/04/18,16:30,0.565,0.820,0.496,1.021,0.720,0.324,0.574,0.546,��쓌,5.9,��
2023/04/18,16:40,0.565,0.819,0.496,1.022,0.719,0.323,0.574,0.546,��쓌,5.5,��
2023/04/18,16:50,0.563,0.821,0.496,1.022,0.720,0.324,0.574,0.546,��쓌,6.0,��
2023/04/18,17:00,0.563,0.821,0.497,1.021,0.719,0.323,0.576,0.547,��,6.2,��
2023/04/18,17:10,0.565,0.819,0.496,1.022,0.720,0.323,0.577,0.546,��,5.7,��
2023/04/18,17:20,0.562,0.820,0.496,1.023,0.721,0.322,0.576,0.546,��,4.9,��
2023/04/18,17:30,0.563,0.819,0.497,1.022,0.718,0.323,0.576,0.547,��,5.2,��
2023/04/18,17:40,0.564,0.819,0.496,1.024,0.719,0.323,0.576,0.547,��,4.4,��
2023/04/18,17:50,0.563,0.822,0.496,1.020,0.722,0.322,0.576,0.545,��쐼,3.6,��
2023/04/18,18:00,0.562,0.819,0.496,1.020,0.721,0.324,0.575,0.545,��쐼,3.0,��
2023/04/18,18:10,0.564,0.819,0.496,1.021,0.722,0.322,0.575,0.545,�쐼,2.5,��
2023/04/18,18:20,0.563,0.820,0.495,1.022,0.722,0.323,0.575,0.547,�쐼,3.0,��
2023/04/18,18:30,0.563,0.819,0.495,1.022,0.723,0.324,0.576,0.544,�쐼,2.9,��
2023/04/18,18:40,0.563,0.819,0.495,1.021,0.722,0.324,0.575,0.547,�쐼,2.0,��
2023/04/18,18:50,0.563,0.818,0.496,1.020,0.721,0.323,0.577,0.546,���쐼,1.1,��
2023/04/18,19:00,0.563,0.820,0.494,1.023,0.721,0.323,0.576,0.544,���쐼,1.4,��
2023/04/18,19:10,0.562,0.820,0.495,1.021,0.721,0.323,0.576,0.544,��쐼,0.8,��
2023/04/18,19:20,0.563,0.818,0.494,1.023,0.722,0.325,0.575,0.545,��,1.7,��
2023/04/18,19:30,0.564,0.819,0.496,1.021,0.721,0.323,0.575,0.546,�쐼,1.2,��
2023/04/18,19:40,0.561,0.818,0.495,1.021,0.722,0.323,0.576,0.547,���쐼,1.2,��
2023/04/18,19:50,0.563,0.818,0.495,1.024,0.722,0.324,0.576,0.546,��,1.2,��
2023/04/18,20:00,0.562,0.818,0.495,1.024,0.721,0.324,0.577,0.546,�쐼,0.8,��
2023/04/18,20:10,0.564,0.818,0.494,1.021,0.721,0.324,0.577,0.544,��,1.5,��
2023/04/18,20:20,0.564,0.821,0.497,1.021,0.722,0.324,0.575,0.546,��,1.5,��
2023/04/18,20:30,0.562,0.821,0.496,1.020,0.723,0.323,0.577,0.547,��쐼,1.5,��
2023/04/18,20:40,0.561,0.818,0.495,1.019,0.722,0.324,0.575,0.546,��,1.9,��
2023/04/18,20:50,0.563,0.819,0.494,1.021,0.722,0.324,0.576,0.546,��,2.9,��
2023/04/18,21:00,0.562,0.821,0.494,1.022,0.723,0.323,0.577,0.545,�쐼,1.2,��
2023/04/18,21:10,0.564,0.820,0.494,1.022,0.723,0.324,0.575,0.544,��쐼,1.2,��
2023/04/18,21:20,0.563,0.818,0.496,1.021,0.722,0.326,0.577,0.544,��쐼,1.2,��
2023/04/18,21:30,0.563,0.818,0.496,1.021,0.722,0.323,0.576,0.546,��,1.5,��
2023/04/18,21:40,0.565,0.820,0.496,1.019,0.724,0.324,0.573,0.546,��,2.2,��
2023/04/18,21:50,0.563,0.820,0.496,1.022,0.722,0.324,0.576,0.546,��쐼,2.2,��
2023/04/18,22:00,0.564,0.819,0.495,1.022,0.722,0.324,0.576,0.545,��쐼,1.7,��
2023/04/18,22:10,0.563,0.818,0.497,1.023,0.722,0.324,0.574,0.546,���쐼,1.5,��
2023/04/18,22:20,0.562,0.817,0.497,1.022,0.722,0.324,0.576,0.546,���쐼,2.0,��
2023/04/18,22:30,0.562,0.820,0.496,1.021,0.723,0.324,0.575,0.544,���쐼,2.3,��
2023/04/18,22:40,0.564,0.816,0.495,1.021,0.721,0.324,0.573,0.545,���쐼,2.0,��
2023/04/18,22:50,0.562,0.818,0.496,1.022,0.722,0.324,0.576,0.544,���쐼,1.5,��
2023/04/18,23:00,0.564,0.818,0.497,1.023,0.723,0.324,0.574,0.546,��,1.2,��
2023/04/18,23:10,0.565,0.819,0.496,1.019,0.724,0.324,0.577,0.546,�쐼,0.9,�L
2023/04/18,23:20,0.563,0.820,0.495,1.022,0.721,0.323,0.575,0.545,��,0.6,��
2023/04/18,23:30,0.563,0.820,0.496,1.021,0.721,0.324,0.575,0.546,���k��,1.2,��
2023/04/18,23:40,0.563,0.818,0.496,1.023,0.723,0.324,0.576,0.546,��,1.2,��
2023/04/18,23:50,0.563,0.817,0.496,1.022,0.723,0.324,0.578,0.547,���k��,0.9,��
